TimeEST,TemperatureF,Dew PointF,Humidity,Sea Level PressureIn,VisibilityMPH,Wind Direction,Wind SpeedMPH,Gust SpeedMPH,PrecipitationIn,Events,Conditions,WindDirDegrees,DateUTC
12:03 AM,19.4,12.2,74,30.12,10.0,NW,9.2,-,N/A,,Overcast,310,2013-01-21 05:03:00
12:56 AM,19.0,10.9,71,30.15,10.0,WNW,6.9,-,N/A,,Overcast,300,2013-01-21 05:56:00
1:06 AM,19.4,10.4,68,30.10,10.0,West,8.1,-,N/A,,Overcast,280,2013-01-21 06:06:00
1:56 AM,19.0,9.0,65,30.14,10.0,WNW,8.1,-,N/A,,Mostly Cloudy,300,2013-01-21 06:56:00
2:56 AM,19.0,10.0,68,30.14,10.0,West,9.2,-,N/A,,Overcast,280,2013-01-21 07:56:00
4:56 AM,18.0,10.0,71,30.09,10.0,WNW,8.1,-,N/A,,Overcast,290,2013-01-21 09:56:00
5:56 AM,18.0,9.0,68,30.09,10.0,West,6.9,-,N/A,,Overcast,280,2013-01-21 10:56:00
7:56 AM,18.0,10.0,71,30.06,10.0,West,5.8,-,N/A,,Overcast,260,2013-01-21 12:56:00
8:56 AM,19.0,10.9,71,30.06,8.0,WSW,8.1,-,N/A,,Overcast,250,2013-01-21 13:56:00
9:56 AM,19.0,10.9,71,30.05,6.0,WSW,6.9,-,N/A,,Haze,250,2013-01-21 14:56:00
10:56 AM,19.9,12.0,71,30.03,7.0,WSW,9.2,-,0.00,,Overcast,250,2013-01-21 15:56:00
11:24 AM,19.4,12.2,74,29.97,5.0,West,10.4,-,0.00,Snow,Light Snow,270,2013-01-21 16:24:00
11:56 AM,19.9,12.9,74,30.00,4.0,West,15.0,21.9,0.00,,Haze,280,2013-01-21 16:56:00
11:58 AM,19.4,12.2,74,29.95,1.5,WNW,19.6,23.0,0.00,Snow,Light Snow,290,2013-01-21 16:58:00
12:00 PM,19.4,12.2,74,29.95,0.8,WNW,17.3,23.0,0.00,Snow,Light Snow,290,2013-01-21 17:00:00
12:11 PM,17.6,12.2,79,29.95,0.2,WNW,17.3,24.2,0.00,Snow,Heavy Snow,290,2013-01-21 17:11:00
12:17 PM,19.4,12.2,74,29.95,1.2,West,16.1,-,0.00,Snow,Light Snow,280,2013-01-21 17:17:00
12:25 PM,19.4,12.2,74,29.94,9.0,West,15.0,-,0.00,,Mostly Cloudy,280,2013-01-21 17:25:00
12:41 PM,19.4,10.4,68,29.93,10.0,West,15.0,-,0.00,,Scattered Clouds,280,2013-01-21 17:41:00
12:56 PM,19.0,10.9,71,29.99,7.0,West,17.3,-,0.00,Snow,Light Snow,280,2013-01-21 17:56:00
1:18 PM,19.4,10.4,68,29.93,5.0,West,16.1,-,0.00,Snow,Light Snow,270,2013-01-21 18:18:00
1:32 PM,19.4,12.2,74,29.94,1.8,West,17.3,26.5,0.00,Snow,Light Snow,270,2013-01-21 18:32:00
1:42 PM,19.4,12.2,74,29.93,4.0,West,16.1,-,0.00,Snow,Light Snow,260,2013-01-21 18:42:00
1:56 PM,19.9,10.0,65,29.99,10.0,West,20.7,28.8,0.00,,Overcast,280,2013-01-21 18:56:00
2:05 PM,19.4,10.4,68,29.94,10.0,West,18.4,28.8,N/A,,Overcast,260,2013-01-21 19:05:00
2:47 PM,17.6,8.6,68,29.95,1.0,West,26.5,34.5,0.00,Snow,Light Snow,280,2013-01-21 19:47:00
2:51 PM,15.8,10.4,79,29.95,0.2,West,21.9,34.5,0.00,Snow,Heavy Snow,280,2013-01-21 19:51:00
3:03 PM,17.6,8.6,68,29.95,1.2,West,17.3,33.4,0.00,Snow,Light Snow,270,2013-01-21 20:03:00
3:07 PM,17.6,8.6,68,29.95,3.0,West,13.8,25.3,0.00,Snow,Light Snow,270,2013-01-21 20:07:00
3:20 PM,17.6,8.6,68,29.96,10.0,West,17.3,24.2,0.00,,Mostly Cloudy,270,2013-01-21 20:20:00
3:30 PM,15.8,8.6,73,29.96,2.0,West,20.7,28.8,0.00,Snow,Light Snow,260,2013-01-21 20:30:00
3:37 PM,15.8,8.6,73,29.96,1.5,West,17.3,28.8,0.00,Snow,Light Snow,260,2013-01-21 20:37:00
3:41 PM,17.6,8.6,68,29.96,3.0,West,17.3,-,0.00,Snow,Light Snow,260,2013-01-21 20:41:00
3:56 PM,17.1,10.9,77,30.03,1.8,WNW,19.6,25.3,0.00,Snow,Light Snow,290,2013-01-21 20:56:00
4:07 PM,15.8,10.4,79,29.98,2.0,West,19.6,27.6,0.00,Snow,Light Snow,280,2013-01-21 21:07:00
4:23 PM,15.8,6.8,68,29.98,4.0,West,18.4,26.5,0.00,Snow,Light Snow,280,2013-01-21 21:23:00
4:46 PM,15.8,5.0,62,29.99,9.0,West,17.3,26.5,0.00,,Overcast,280,2013-01-21 21:46:00
4:56 PM,15.1,6.1,68,30.06,6.0,WNW,15.0,-,0.00,Snow,Light Snow,300,2013-01-21 21:56:00
5:05 PM,15.8,6.8,68,30.00,9.0,West,15.0,26.5,0.00,,Mostly Cloudy,280,2013-01-21 22:05:00
5:56 PM,12.9,3.9,67,30.08,10.0,West,10.4,-,0.00,,Mostly Cloudy,270,2013-01-21 22:56:00
6:35 PM,12.2,6.8,79,30.02,2.5,West,12.7,-,0.00,Snow,Light Snow,270,2013-01-21 23:35:00
6:45 PM,12.2,6.8,79,30.02,9.0,West,10.4,-,0.00,,Mostly Cloudy,260,2013-01-21 23:45:00
6:56 PM,12.0,6.1,77,30.09,10.0,West,9.2,-,0.00,,Mostly Cloudy,260,2013-01-21 23:56:00
7:56 PM,12.9,5.0,71,30.09,3.0,West,18.4,23.0,0.00,Snow,Light Snow,280,2013-01-22 00:56:00
8:03 PM,12.2,6.8,79,30.03,1.8,West,17.3,-,0.00,Snow,Light Snow,280,2013-01-22 01:03:00
8:07 PM,12.2,6.8,79,30.03,0.8,WNW,16.1,-,0.00,Snow,Light Snow,290,2013-01-22 01:07:00
8:18 PM,12.2,8.6,85,30.04,0.8,West,16.1,-,0.00,Snow,Light Snow,280,2013-01-22 01:18:00
8:32 PM,10.4,8.6,92,30.04,0.2,WNW,15.0,25.3,0.00,Fog-Snow,Snow,290,2013-01-22 01:32:00
8:54 PM,10.4,6.8,85,30.04,1.2,West,16.1,24.2,0.00,Snow,Light Snow,280,2013-01-22 01:54:00
8:56 PM,10.9,6.1,81,30.11,1.8,West,18.4,24.2,0.00,Snow,Light Snow,270,2013-01-22 01:56:00
8:59 PM,10.4,5.0,79,30.04,3.0,West,17.3,23.0,0.00,Snow,Light Snow,280,2013-01-22 01:59:00
9:03 PM,10.4,3.2,73,30.04,8.0,West,16.1,-,0.00,,Mostly Cloudy,280,2013-01-22 02:03:00
9:12 PM,10.4,3.2,73,30.05,10.0,West,17.3,-,0.00,,Scattered Clouds,270,2013-01-22 02:12:00
9:21 PM,10.4,5.0,79,30.05,1.8,WNW,21.9,29.9,0.00,Snow,Light Snow,290,2013-01-22 02:21:00
9:38 PM,10.4,6.8,85,30.06,2.5,WNW,13.8,-,0.00,Snow,Light Snow,290,2013-01-22 02:38:00
9:56 PM,10.0,3.9,76,30.12,3.0,WNW,17.3,-,0.00,Snow,Light Snow,290,2013-01-22 02:56:00
10:49 PM,8.6,1.4,73,30.07,9.0,West,12.7,-,0.00,,Scattered Clouds,270,2013-01-22 03:49:00
10:56 PM,8.1,1.9,76,30.14,10.0,West,12.7,-,0.00,,Partly Cloudy,270,2013-01-22 03:56:00
11:56 PM,7.0,-0.9,70,30.15,10.0,West,11.5,-,N/A,,Scattered Clouds,280,2013-01-22 04:56:00